Nome, AK

5:36 PM AKDT on April 28, 2017 (GMT -0800)
Nome

Weather History for PAOM - November, 2012

Change the Weather History Date:

Wednesday, November 28, 2012

  Actual Average Record
Temperature  
Mean Temperature 19 °F 13 °F  
Max Temperature 26 °F 20 °F 39 °F (1983)
Min Temperature 11 °F 7 °F -34 °F (1948)
Degree Days  
Heating Degree Days 46 52  
Month to date heating degree days 1388 1339  
Since 1 July heating degree days 4100 3989  
Cooling Degree Days 0 0  
Month to date cooling degree days 0 0  
Year to date cooling degree days 0 3  
Moisture  
Dew Point 7 °F    
Average Humidity 0    
Maximum Humidity 0    
Minimum Humidity 0    
Precipitation  
Precipitation 0.00 in 0.03 in 0.38 in (1983)
Month to date precipitation 0.02 1.15  
Year to date precipitation 18.13 15.66  
Snow  
Snow 0.00 in 0.40 in 3.00 in (1919)
Month to date snowfall 0.2 11.3  
Since 1 July snowfall 2.6 16.5  
Since 1 September snowfall 2.6 16.5  
Snow Depth T in    
Sea Level Pressure  
Sea Level Pressure 30.35 in    
Wind  
Wind Speed 3 mph (North)    
Max Wind Speed 10 mph    
Max Gust Speed 10 mph    
Visibility 10 miles    
Events      
T = Trace of Precipitation, MM = Missing Value Source: NWS Daily Summary

Daily Weather History Graph

Daily Weather History Graph

Search for Another Location

Airport or City:

Trip Planner

Search our weather history database for the weather conditions in past years. The results will help you decide how hot, cold, wet, or windy it might be!

Date:

Astronomy

Nov. 28, 2012 Rise Set
Actual Time 11:18 AM AKST 4:21 PM AKST
Civil Twilight 10:07 AM AKST 5:32 PM AKST
Nautical Twilight 9:01 AM AKST 6:38 PM AKST
Astronomical Twilight 8:02 AM AKST 7:37 PM AKST
Moon 4:42 PM AKST (11/28) 11:29 AM AKST (11/28)
Length of Visible Light 7h 24m
Length of Day
5h 02m
Full, 100% of the Moon is Illuminated
Nov 28
Full
Dec 6
Last Quarter
Dec 12
New
Dec 19
First Quarter
Dec 28
Full

Hourly Weather History & Observations

Time (AKST) Temp. Windchill Dew Point Humidity Pressure Visibility Wind Dir Wind Speed Gust Speed Precip Events Conditions
12:53 AM 16.0 °F - 10.9 °F 81% 30.32 in 10.0 mi Calm Calm - N/A   Overcast
1:53 AM 14.0 °F - 10.0 °F 84% 30.32 in 10.0 mi Calm Calm - N/A   Clear
3:53 AM 18.0 °F 12.7 °F 14.0 °F 84% 30.32 in 10.0 mi WNW 3.5 mph - N/A   Mostly Cloudy
4:53 AM 19.0 °F - 14.0 °F 81% 30.32 in 10.0 mi Calm Calm - N/A   Overcast
5:53 AM 21.9 °F - 15.1 °F 75% 30.33 in 10.0 mi Calm Calm - N/A   Clear
6:53 AM 23.0 °F 15.8 °F 15.1 °F 72% 30.34 in 10.0 mi West 5.8 mph - N/A   Scattered Clouds
7:53 AM 19.9 °F 14.9 °F 14.0 °F 78% 30.33 in 10.0 mi Variable 3.5 mph - N/A   Scattered Clouds
8:53 AM 18.0 °F 11.1 °F 12.9 °F 81% 30.32 in 10.0 mi NW 4.6 mph - N/A   Scattered Clouds
9:53 AM 14.0 °F 5.1 °F 10.0 °F 84% 30.32 in 10.0 mi East 5.8 mph - N/A   Scattered Clouds
10:53 AM 16.0 °F - 10.9 °F 81% 30.33 in 10.0 mi Calm Calm - N/A   Clear
11:53 AM 14.0 °F - 10.0 °F 84% 30.34 in 10.0 mi Calm Calm - N/A   Clear
12:53 PM 12.9 °F - 8.1 °F 81% 30.34 in 10.0 mi Calm Calm - N/A   Partly Cloudy
1:53 PM 17.1 °F 8.7 °F 8.1 °F 68% 30.35 in 10.0 mi NE 5.8 mph - N/A   Partly Cloudy
2:53 PM 19.0 °F 6.1 °F 3.9 °F 52% 30.34 in 10.0 mi NNE 12.7 mph - N/A   Clear
3:53 PM 19.9 °F 11.1 °F 3.0 °F 48% 30.36 in 10.0 mi ENE 6.9 mph - N/A   Clear
4:53 PM 19.0 °F 5.0 °F -0.0 °F 43% 30.36 in 10.0 mi NNE 15.0 mph - N/A   Scattered Clouds
5:53 PM 14.0 °F 6.5 °F 3.0 °F 62% 30.37 in 10.0 mi West 4.6 mph - N/A   Partly Cloudy
6:53 PM 12.0 °F - 6.1 °F 77% 30.38 in 10.0 mi Calm Calm - N/A   Partly Cloudy
7:53 PM 9.0 °F - 3.9 °F 80% 30.38 in 10.0 mi Calm Calm - N/A   Partly Cloudy
8:53 PM 7.0 °F - -0.0 °F 73% 30.39 in 10.0 mi Calm Calm - N/A   Partly Cloudy
9:53 PM 6.1 °F - 1.0 °F 80% 30.39 in 10.0 mi Calm Calm - N/A   Partly Cloudy
10:53 PM 7.0 °F 0.1 °F -0.9 °F 70% 30.38 in 10.0 mi NNW 3.5 mph - N/A   Partly Cloudy
11:53 PM 6.1 °F -0.9 °F -0.9 °F 73% 30.38 in 10.0 mi NNE 3.5 mph - N/A   Partly Cloudy